Location: ????????
(48.4751°N, 37.6926°E)
Time: 20:41:00
(UTC+00:00)

Cosmos 2263 Rocket - Pass Details

Date: 20 January 2021
Orbit: 825 x 847 km, 71.0° (Epoch: 02 March)

Event Time Altitude Azimuth Distance (km) Brightness Sun altitude
Rises 15:33:03 0° 222° (SW) 3,398 6.4 -13.6°
Reaches altitude 10° 15:35:34 10° 227° (SW) 2,465 5.6 -14.0°
Maximum altitude 15:41:05 53° 304° (NW) 1,036 2.9 -14.9°
Drops below altitude 10° 15:46:38 10° 21° (NNE) 2,469 4.3 -15.8°
Enters shadow 15:47:28 - 23° (NNE) 2,774 4.6 -16.0°
